TimeMDT,TemperatureF,Dew PointF,Humidity,Sea Level PressureIn,VisibilityMPH,Wind Direction,Wind SpeedMPH,Gust SpeedMPH,PrecipitationIn,Events,Conditions,WindDirDegrees,DateUTC
12:15 AM,46.4,33.8,62,30.03,10.0,Calm,Calm,-,N/A,,Clear,0,2013-10-01 06:15:00
12:35 AM,44.6,33.8,66,30.03,10.0,Calm,Calm,-,N/A,,Clear,0,2013-10-01 06:35:00
12:55 AM,42.8,33.8,70,30.04,10.0,East,3.5,-,N/A,,Clear,80,2013-10-01 06:55:00
1:15 AM,46.4,35.6,66,30.04,10.0,Calm,Calm,-,N/A,,Clear,0,2013-10-01 07:15:00
1:35 AM,44.6,33.8,66,30.05,10.0,Calm,Calm,-,N/A,,Clear,0,2013-10-01 07:35:00
1:55 AM,42.8,33.8,70,30.05,10.0,ESE,4.6,-,N/A,,Clear,110,2013-10-01 07:55:00
2:15 AM,42.8,33.8,70,30.06,10.0,SE,4.6,-,N/A,,Clear,130,2013-10-01 08:15:00
2:35 AM,41.0,33.8,76,30.07,10.0,Calm,Calm,-,N/A,,Clear,0,2013-10-01 08:35:00
2:55 AM,42.8,33.8,70,30.07,10.0,Calm,Calm,-,N/A,,Clear,0,2013-10-01 08:55:00
3:15 AM,37.4,32.0,81,30.07,10.0,Calm,Calm,-,N/A,,Clear,0,2013-10-01 09:15:00
3:35 AM,39.2,33.8,81,30.06,10.0,SSE,3.5,-,N/A,,Clear,150,2013-10-01 09:35:00
3:55 AM,37.4,33.8,87,30.07,10.0,ESE,5.8,-,N/A,,Clear,110,2013-10-01 09:55:00
4:15 AM,41.0,33.8,76,30.07,10.0,Calm,Calm,-,N/A,,Clear,0,2013-10-01 10:15:00
4:35 AM,39.2,33.8,81,30.07,10.0,ENE,3.5,-,N/A,,Clear,70,2013-10-01 10:35:00
4:55 AM,37.4,32.0,81,30.07,10.0,Calm,Calm,-,N/A,,Clear,0,2013-10-01 10:55:00
5:15 AM,35.6,32.0,87,30.07,10.0,Calm,Calm,-,N/A,,Clear,0,2013-10-01 11:15:00
5:35 AM,35.6,32.0,87,30.07,10.0,Calm,Calm,-,N/A,,Clear,0,2013-10-01 11:35:00
5:55 AM,33.8,32.0,93,30.07,10.0,Calm,Calm,-,N/A,,Clear,0,2013-10-01 11:55:00
6:15 AM,35.6,32.0,87,30.08,10.0,Calm,Calm,-,N/A,,Clear,0,2013-10-01 12:15:00
6:35 AM,33.8,32.0,93,30.08,10.0,Calm,Calm,-,N/A,,Clear,0,2013-10-01 12:35:00
6:55 AM,33.8,32.0,93,30.08,10.0,Calm,Calm,-,N/A,,Clear,0,2013-10-01 12:55:00
7:15 AM,33.8,32.0,93,30.09,10.0,Calm,Calm,-,N/A,,Clear,0,2013-10-01 13:15:00
7:35 AM,33.8,32.0,93,30.09,10.0,Calm,Calm,-,N/A,,Clear,0,2013-10-01 13:35:00
7:55 AM,33.8,32.0,93,30.10,10.0,ESE,3.5,-,N/A,,Clear,110,2013-10-01 13:55:00
8:15 AM,37.4,33.8,87,30.10,10.0,Calm,Calm,-,N/A,,Clear,0,2013-10-01 14:15:00
8:35 AM,41.0,35.6,81,30.10,10.0,Calm,Calm,-,N/A,,Clear,0,2013-10-01 14:35:00
8:55 AM,42.8,35.6,76,30.10,10.0,Calm,Calm,-,N/A,,Clear,0,2013-10-01 14:55:00
9:15 AM,44.6,35.6,71,30.09,10.0,Calm,Calm,-,N/A,,Clear,0,2013-10-01 15:15:00
9:35 AM,46.4,35.6,66,30.09,10.0,Calm,Calm,-,N/A,,Clear,0,2013-10-01 15:35:00
9:55 AM,48.2,35.6,62,30.09,10.0,Calm,Calm,-,N/A,,Clear,0,2013-10-01 15:55:00
10:15 AM,50.0,35.6,58,30.08,10.0,Calm,Calm,-,N/A,,Clear,0,2013-10-01 16:15:00
10:35 AM,51.8,35.6,54,30.08,10.0,Calm,Calm,-,N/A,,Clear,0,2013-10-01 16:35:00
10:55 AM,53.6,35.6,51,30.07,10.0,Calm,Calm,-,N/A,,Clear,0,2013-10-01 16:55:00
11:15 AM,55.4,33.8,44,30.07,10.0,Calm,Calm,-,N/A,,Clear,0,2013-10-01 17:15:00
11:35 AM,59.0,35.6,42,30.05,10.0,Calm,Calm,-,N/A,,Clear,0,2013-10-01 17:35:00
11:55 AM,60.8,35.6,39,30.05,10.0,Calm,Calm,-,N/A,,Clear,0,2013-10-01 17:55:00
12:15 PM,62.6,37.4,39,30.04,10.0,Calm,Calm,-,N/A,,Clear,0,2013-10-01 18:15:00
12:35 PM,66.2,35.6,32,30.03,10.0,WSW,9.2,-,N/A,,Clear,250,2013-10-01 18:35:00
12:55 PM,69.8,32.0,25,30.03,10.0,SW,11.5,17.3,N/A,,Clear,230,2013-10-01 18:55:00
1:15 PM,71.6,32.0,23,30.02,10.0,SW,12.7,-,N/A,,Clear,230,2013-10-01 19:15:00
1:35 PM,71.6,30.2,22,30.01,10.0,SW,16.1,-,N/A,,Clear,230,2013-10-01 19:35:00
1:55 PM,71.6,32.0,23,30.00,10.0,SW,17.3,24.2,N/A,,Clear,220,2013-10-01 19:55:00
2:15 PM,71.6,30.2,22,30.00,10.0,SW,15.0,-,N/A,,Clear,230,2013-10-01 20:15:00
2:35 PM,71.6,30.2,22,29.99,10.0,SW,17.3,21.9,N/A,,Clear,230,2013-10-01 20:35:00
2:55 PM,73.4,32.0,22,29.99,10.0,SW,13.8,-,N/A,,Clear,230,2013-10-01 20:55:00
3:15 PM,73.4,30.2,20,29.99,10.0,SW,17.3,25.3,N/A,,Clear,220,2013-10-01 21:15:00
3:35 PM,71.6,30.2,22,29.99,10.0,SSW,11.5,24.2,N/A,,Clear,210,2013-10-01 21:35:00
3:55 PM,71.6,30.2,22,29.98,10.0,SW,15.0,20.7,N/A,,Clear,230,2013-10-01 21:55:00
4:15 PM,71.6,28.4,20,29.98,10.0,SW,13.8,21.9,N/A,,Clear,230,2013-10-01 22:15:00
4:35 PM,71.6,28.4,20,29.97,10.0,SSW,13.8,21.9,N/A,,Clear,200,2013-10-01 22:35:00
4:55 PM,71.6,30.2,22,29.97,10.0,SW,10.4,17.3,N/A,,Clear,230,2013-10-01 22:55:00
5:15 PM,71.6,30.2,22,29.97,10.0,SW,10.4,-,N/A,,Clear,220,2013-10-01 23:15:00
5:35 PM,71.6,30.2,22,29.96,10.0,SW,12.7,-,N/A,,Clear,220,2013-10-01 23:35:00
5:55 PM,71.6,30.2,22,29.96,10.0,SW,11.5,-,N/A,,Clear,220,2013-10-01 23:55:00
6:15 PM,69.8,28.4,21,29.96,10.0,SSW,6.9,-,N/A,,Clear,200,2013-10-02 00:15:00
6:35 PM,68.0,28.4,23,29.96,10.0,SW,9.2,16.1,N/A,,Clear,220,2013-10-02 00:35:00
6:55 PM,66.2,26.6,23,29.96,10.0,SSW,6.9,-,N/A,,Clear,200,2013-10-02 00:55:00
7:15 PM,64.4,28.4,26,29.97,10.0,Calm,Calm,-,N/A,,Clear,0,2013-10-02 01:15:00
7:35 PM,59.0,32.0,36,29.96,10.0,Calm,Calm,-,N/A,,Clear,0,2013-10-02 01:35:00
7:55 PM,55.4,32.0,41,29.97,10.0,East,4.6,-,N/A,,Clear,90,2013-10-02 01:55:00
8:15 PM,53.6,32.0,44,29.97,10.0,ESE,6.9,-,N/A,,Clear,110,2013-10-02 02:15:00
8:35 PM,48.2,33.8,58,29.97,10.0,East,8.1,-,N/A,,Clear,100,2013-10-02 02:35:00
8:55 PM,50.0,33.8,54,29.98,10.0,Calm,Calm,-,N/A,,Clear,0,2013-10-02 02:55:00
9:15 PM,50.0,35.6,58,29.98,10.0,SSW,3.5,-,N/A,,Clear,200,2013-10-02 03:15:00
9:35 PM,50.0,33.8,54,29.98,10.0,Calm,Calm,-,N/A,,Clear,0,2013-10-02 03:35:00
9:55 PM,44.6,35.6,71,29.99,10.0,Calm,Calm,-,N/A,,Clear,0,2013-10-02 03:55:00
10:15 PM,46.4,33.8,62,29.99,10.0,Calm,Calm,-,N/A,,Clear,0,2013-10-02 04:15:00
10:35 PM,44.6,33.8,66,29.99,10.0,SSE,3.5,-,N/A,,Clear,160,2013-10-02 04:35:00
10:55 PM,46.4,33.8,62,29.99,10.0,Calm,Calm,-,N/A,,Clear,0,2013-10-02 04:55:00
11:15 PM,42.8,33.8,70,30.00,10.0,Calm,Calm,-,N/A,,Clear,0,2013-10-02 05:15:00
11:35 PM,44.6,33.8,66,30.00,10.0,Calm,Calm,-,N/A,,Clear,0,2013-10-02 05:35:00
11:55 PM,42.8,33.8,70,30.01,10.0,Calm,Calm,-,N/A,,Clear,0,2013-10-02 05:55:00